GFSMW_sfc_thetae_000.txt.gz
Theta_e
300 301 300 298 297 295 293 293 292 291 292 290 288 287 288 287 287 288 288 288 288 288 286 286 286 286 285 285 286 286 286 285 287 286 286 287 288 289 291 293 294 296 295
297 297 297 296 296 294 293 292 292 291 292 291 289 288 288 287 287 288 288 288 287 287 286 285 284 284 284 284 285 285 284 285 286 283 283 281 284 288 288 288 290 292 294
297 295 295 295 294 293 292 292 292 292 291 290 289 287 286 286 285 285 285 287 287 286 286 285 284 284 284 283 284 284 283 282 283 284 283 280 279 283 286 287 288 288 289
297 296 294 293 293 292 292 292 292 291 291 290 288 286 284 282 284 285 286 286 286 285 285 285 284 283 283 283 283 285 283 282 281 283 286 284 283 280 280 284 286 287 288
296 294 293 294 294 292 292 291 291 291 290 289 288 286 283 284 285 285 284 283 284 284 284 284 283 282 282 283 283 282 282 282 281 281 281 281 282 283 281 278 281 285 286
294 294 293 293 293 291 291 291 290 290 290 288 287 286 285 284 283 282 282 282 282 282 283 283 282 281 281 281 282 282 281 281 281 281 281 281 280 279 279 279 279 280 283
293 292 291 291 291 290 290 290 290 289 289 287 286 286 285 284 283 283 282 281 280 280 280 281 280 280 280 280 280 280 280 280 279 280 280 281 281 282 281 280 279 278 281
294 292 292 291 291 290 290 289 289 288 288 287 286 286 285 286 284 283 283 281 280 280 280 279 279 279 279 279 279 278 279 279 279 278 279 279 280 281 281 280 278 276 277
294 293 293 291 290 290 289 289 289 288 288 286 286 285 285 283 283 281 280 279 279 279 278 278 277 278 278 278 277 277 277 278 278 278 279 279 279 280 280 280 280 278 274
293 293 293 292 291 290 290 289 289 288 287 286 285 285 284 282 281 279 278 278 277 277 276 277 276 276 276 276 276 276 277 277 277 278 277 277 277 277 278 278 279 279 277
293 292 292 292 291 290 289 288 288 287 286 284 284 283 282 280 279 279 278 277 277 276 276 276 275 275 275 275 274 275 275 273 274 274 274 274 275 274 274 274 275 274 275
295 294 293 291 290 289 288 287 287 286 286 284 283 281 280 279 278 277 276 276 275 275 275 274 274 274 274 273 273 272 272 271 271 272 272 272 273 271 271 271 271 271 272
294 294 292 290 290 289 288 287 286 286 285 283 282 280 279 278 276 276 276 275 275 274 274 273 272 272 272 272 272 271 271 271 270 271 270 270 271 270 270 271 270 271 272
294 293 292 290 290 289 288 287 286 285 284 282 281 279 277 277 275 275 275 274 273 273 272 272 272 271 271 271 271 271 270 270 270 271 271 271 271 271 270 270 270 270 269
294 293 292 291 291 287 287 286 286 285 284 281 279 277 276 275 275 274 273 272 272 272 272 271 270 270 269 270 270 270 270 270 271 272 272 272 272 274 275 273 272 272 271
296 295 291 289 288 287 287 285 285 284 283 280 277 276 275 274 273 272 271 271 270 270 270 269 269 268 270 273 275 274 272 272 271 270 271 272 272 273 275 276 277 276 272
296 292 291 290 288 287 286 284 284 283 281 278 276 274 274 272 271 271 270 270 269 270 269 269 269 269 269 273 274 275 273 272 271 271 271 271 273 273 273 275 276 276 277
296 294 289 290 289 287 283 282 282 281 278 277 275 273 272 271 270 269 269 269 269 269 268 268 269 268 269 273 274 274 273 271 271 272 272 273 273 274 275 274 273 273 274
298 297 292 291 290 285 283 281 279 277 276 274 273 272 272 270 269 268 268 268 268 268 268 268 267 266 267 270 272 274 271 271 271 273 274 274 273 275 277 274 272 272 273
293 291 290 289 285 281 281 279 277 275 274 273 272 272 271 269 268 268 268 268 268 267 268 267 267 267 265 269 272 274 270 268 271 272 273 274 274 275 277 274 272 270 271
291 288 286 285 283 280 279 277 275 274 275 273 271 270 269 268 268 267 267 266 266 267 266 266 267 267 268 267 272 274 273 271 272 271 271 271 274 276 276 276 271 271 274
284 283 283 282 280 279 278 276 274 274 273 271 269 268 267 267 267 266 265 264 265 264 264 265 267 269 271 271 271 274 275 276 270 270 271 271 276 274 274 272 274 274 274
285 281 279 277 277 276 277 275 274 272 270 268 267 265 265 264 264 264 263 263 264 265 265 266 267 267 269 269 271 272 274 274 272 272 273 274 272 272 270 271 272 270 267
284 276 275 274 273 273 275 274 273 271 268 266 264 263 263 262 262 264 264 264 264 265 266 267 266 266 267 267 268 269 268 272 272 272 267 268 269 269 269 267 268 268 267
279 276 277 277 278 274 274 273 270 268 267 265 264 263 263 263 263 265 265 266 267 267 266 266 265 264 263 265 272 271 270 270 271 264 261 261 262 263 264 264 265 266 266
285 277 277 277 277 274 273 270 269 268 266 265 264 263 262 263 264 264 265 270 269 271 271 271 267 265 269 271 272 272 273 271 271 256 255 260 261 261 262 262 263 265 265

GFSMW_sfc_thetae_003.txt.gz
Theta_e
300 297 298 299 297 294 292 291 291 292 292 291 289 288 287 285 285 286 287 286 286 287 286 285 285 285 285 285 285 285 285 284 285 284 284 285 287 287 288 287 287 289 292
296 296 295 294 294 292 292 291 291 291 292 292 291 287 287 285 285 286 286 286 286 286 286 285 284 284 284 284 284 284 283 284 284 282 281 280 284 286 287 287 289 287 290
294 293 292 293 293 291 290 291 291 291 291 291 289 286 286 284 284 284 284 285 286 286 285 284 284 283 283 283 283 283 283 281 282 283 282 279 278 283 285 286 286 286 287
294 293 292 291 291 291 291 291 291 291 291 289 289 286 287 285 286 286 285 285 285 285 285 284 284 283 283 282 282 284 282 282 280 282 285 283 282 279 278 283 285 286 287
294 293 293 295 292 291 290 290 290 290 290 289 289 287 286 286 283 284 284 284 283 284 283 284 283 282 282 282 282 282 281 282 281 281 281 281 281 282 279 277 279 283 284
293 294 293 292 290 289 290 289 289 289 290 289 288 287 285 283 283 284 283 283 283 282 282 283 281 281 281 281 281 281 281 280 280 280 280 280 279 279 278 278 278 279 281
292 290 290 291 290 288 289 289 289 288 288 288 287 287 285 285 283 284 284 282 282 280 280 281 280 280 280 281 280 280 279 279 279 279 279 281 280 281 280 279 278 277 280
291 291 290 290 289 289 288 289 288 288 287 288 286 286 285 285 284 284 284 283 283 281 280 280 279 279 279 279 279 278 278 279 279 278 279 279 280 280 280 279 278 275 277
290 291 289 289 288 288 288 289 288 288 287 287 286 285 285 285 284 283 283 282 281 280 279 279 278 278 278 278 278 277 278 278 279 279 279 279 279 280 280 280 279 277 273
291 291 289 289 289 289 289 289 289 288 287 287 286 285 285 285 284 282 281 280 280 279 278 277 277 277 277 277 277 277 277 277 278 278 277 277 277 277 277 278 277 277 275
291 291 291 291 290 289 288 288 287 287 286 285 285 285 284 284 282 282 281 280 279 278 277 277 276 276 276 276 275 276 276 274 274 275 275 275 275 274 274 274 274 274 274
292 291 291 290 288 288 287 287 287 287 287 285 284 284 282 281 281 281 279 278 278 277 277 276 276 275 275 274 274 273 274 273 272 273 273 272 273 271 272 271 271 271 272
292 292 290 289 290 289 288 288 287 287 286 283 282 282 281 280 280 278 277 277 276 276 276 275 274 274 273 273 273 272 272 272 272 271 271 270 270 270 270 270 270 270 271
295 294 292 290 289 289 288 287 286 286 284 283 282 281 280 280 278 277 276 276 275 274 274 273 272 272 272 272 272 272 271 271 271 271 271 271 271 270 269 270 269 270 269
292 293 293 292 290 289 288 287 286 284 284 283 282 281 280 279 277 276 276 274 274 273 273 272 271 271 271 271 271 271 271 270 270 271 271 272 272 273 274 272 272 271 270
295 294 292 291 289 288 289 286 286 283 283 282 281 280 278 276 275 275 273 273 272 272 272 271 270 269 271 274 276 273 271 272 271 271 272 272 272 273 275 276 277 276 273
296 294 293 291 289 288 287 285 285 283 282 281 280 277 276 275 274 274 273 272 271 271 271 270 270 270 271 276 277 277 274 273 272 272 271 271 273 273 273 275 277 277 277
298 292 290 290 290 289 286 286 281 282 282 281 279 276 275 274 273 272 272 271 270 270 269 269 270 270 271 276 277 276 274 273 272 272 272 272 273 274 274 273 273 274 274
298 298 293 292 290 289 287 283 281 281 280 279 277 275 275 273 272 271 271 270 269 269 269 269 268 269 270 276 276 275 273 273 272 273 273 273 273 275 277 274 273 273 273
292 290 291 289 289 287 282 281 280 279 278 278 277 275 274 273 271 271 270 269 269 268 269 268 267 268 266 273 275 275 273 267 270 272 273 275 274 276 277 275 273 270 270
288 287 285 285 285 281 279 279 278 278 278 276 274 273 273 272 271 270 270 268 268 269 268 267 267 266 266 268 275 276 272 270 269 271 271 273 275 276 278 277 272 270 274
290 288 284 283 281 279 278 277 277 276 274 274 272 271 271 271 269 268 267 267 267 266 266 266 266 268 268 270 274 275 276 275 269 267 272 271 275 275 275 273 273 275 273
289 290 286 281 279 276 278 278 275 273 272 271 271 270 268 268 267 266 265 265 265 265 265 266 266 267 269 269 274 275 274 275 272 272 272 273 273 272 270 271 272 270 266
286 288 288 287 286 278 278 279 275 274 271 269 268 267 266 265 266 266 266 266 265 266 267 267 267 267 267 267 268 268 268 272 271 270 265 268 268 268 268 266 267 266 266
285 286 285 284 285 284 279 279 274 273 271 270 267 266 266 265 264 266 266 266 268 269 268 268 267 266 266 267 269 269 268 269 269 258 256 257 261 262 263 263 264 265 265
279 282 284 282 284 285 280 279 275 273 271 268 266 266 265 265 265 265 266 271 271 273 274 273 269 268 271 273 275 274 273 271 270 256 252 255 259 260 261 261 262 263 264

GFSMW_sfc_thetae_006.txt.gz
Theta_e
302 298 297 297 296 295 294 293 292 292 293 291 290 289 289 288 286 286 287 286 286 286 285 285 285 285 284 284 284 284 283 283 283 283 283 284 285 285 286 285 286 288 289
300 294 294 293 294 294 293 292 292 292 293 293 293 290 289 285 287 287 287 287 286 285 285 284 284 284 283 283 283 283 282 283 283 281 281 279 282 285 285 285 285 285 286
300 296 293 292 292 292 292 291 292 292 293 292 290 285 285 283 283 284 284 285 285 285 285 284 283 283 283 282 282 282 282 281 281 282 281 278 277 280 284 284 285 284 285
297 296 292 290 290 291 291 292 292 291 292 291 289 287 289 286 286 286 284 283 285 284 284 284 283 282 282 282 282 283 282 281 280 281 284 282 281 278 277 281 282 284 284
293 293 292 293 291 289 290 290 290 291 290 290 290 288 288 288 283 283 283 283 283 284 283 283 282 282 282 282 282 281 281 281 280 280 280 280 280 279 278 277 279 282 282
294 293 292 291 288 287 288 289 289 289 288 289 288 288 288 284 284 283 283 283 283 283 282 282 281 281 281 281 281 281 281 281 280 280 280 280 278 278 277 277 277 277 280
291 290 290 290 288 287 287 288 288 288 288 288 288 287 287 285 285 284 284 283 282 282 282 281 280 280 280 281 281 280 279 279 279 279 279 280 280 280 279 278 277 276 278
292 292 290 291 289 288 287 288 288 288 288 288 288 288 287 285 286 284 284 284 283 283 282 281 280 280 280 280 279 279 278 278 279 278 278 279 279 280 280 279 277 274 276
291 291 289 289 288 287 288 288 287 288 288 288 288 287 287 285 285 284 284 284 283 281 280 280 280 279 279 279 278 278 278 278 278 278 278 278 278 279 279 279 278 276 272
289 289 288 288 287 288 288 288 288 288 287 287 287 286 286 285 285 282 282 282 281 281 279 279 279 278 278 278 277 277 277 277 277 278 277 277 277 277 277 277 277 276 272
291 290 290 289 288 287 287 287 287 286 285 286 286 285 284 284 283 282 281 280 280 280 280 279 278 277 277 277 276 276 276 275 275 275 275 275 275 274 274 274 274 273 273
291 291 291 290 288 287 286 287 288 287 287 286 285 285 284 283 282 282 281 280 280 279 279 278 277 277 276 276 275 274 275 273 273 274 273 273 274 273 273 272 271 272 272
290 291 292 292 292 290 288 288 288 287 287 285 284 283 282 282 283 282 280 280 279 278 278 277 277 276 275 275 275 274 273 273 273 273 273 272 272 271 271 271 270 271 271
293 293 294 293 292 291 290 288 288 287 286 285 284 283 282 282 282 282 280 279 279 277 277 277 276 275 274 273 273 273 272 271 272 272 272 272 271 272 271 270 270 270 269
292 295 294 294 294 290 290 289 289 287 286 285 283 283 283 283 282 279 279 278 278 277 276 275 274 273 273 273 272 272 271 271 271 271 272 272 273 274 273 271 270 270 268
296 296 294 292 290 291 292 289 289 286 285 284 283 283 282 281 279 278 278 277 276 275 275 274 273 271 272 277 278 274 272 271 271 271 272 273 272 274 276 277 277 276 272
291 290 291 292 291 292 290 289 288 285 283 284 283 281 280 279 277 277 276 275 275 274 273 273 272 271 272 279 279 277 273 272 272 272 272 272 273 273 273 275 276 277 278
288 289 290 291 291 292 291 288 284 283 283 283 281 280 278 277 276 276 275 275 275 274 273 272 272 272 271 280 281 279 274 273 273 272 272 272 272 273 273 273 273 273 274
288 289 290 290 289 288 287 285 279 280 281 281 281 279 278 277 275 275 275 275 274 273 273 272 271 271 271 280 281 279 273 273 272 273 273 273 273 274 276 274 272 273 274
289 289 290 289 289 288 283 280 278 277 279 280 279 278 278 277 275 275 274 274 274 273 273 271 271 271 270 280 280 279 273 271 271 272 273 275 274 276 277 274 273 272 273
286 287 288 287 288 285 281 281 277 277 276 276 274 273 274 274 274 274 273 272 272 271 271 270 269 270 270 275 280 280 272 270 269 270 270 273 275 276 277 278 273 272 273
284 285 285 285 287 288 281 282 280 277 273 273 272 272 272 273 273 271 271 271 271 269 269 267 267 269 269 271 278 279 277 275 269 270 272 272 274 276 277 275 274 275 274
280 282 283 284 285 287 283 281 283 273 271 273 273 272 270 271 271 270 269 268 269 269 267 267 267 267 268 269 277 279 279 277 272 272 273 274 273 273 271 271 272 271 265
277 278 278 279 280 284 285 284 284 276 274 273 272 271 270 269 270 270 269 269 269 268 268 268 267 267 267 269 273 274 276 276 274 272 266 268 268 268 269 266 267 266 265
273 274 273 273 274 277 282 285 285 276 274 273 272 270 270 269 269 270 269 270 270 271 269 269 269 268 267 269 272 271 269 269 269 259 257 259 262 262 263 263 263 264 264
271 269 269 270 271 273 274 276 282 276 276 273 271 270 269 268 268 268 268 274 273 275 276 275 272 271 273 274 275 275 275 275 273 256 254 257 260 260 261 260 261 262 263

GFSMW_sfc_thetae_009.txt.gz
Theta_e
301 302 296 295 295 293 294 294 293 294 294 292 290 291 291 290 289 288 288 288 287 287 285 285 284 284 284 283 283 283 282 283 282 281 282 283 285 284 284 284 285 286 286
299 300 294 293 293 294 294 294 293 292 294 294 294 291 292 287 289 288 287 287 286 286 285 284 284 283 283 283 283 283 282 282 282 280 280 279 281 284 284 284 285 283 285
298 299 293 292 291 291 292 293 293 292 294 293 290 285 284 283 283 284 286 286 286 285 285 284 284 283 283 282 282 282 282 281 281 281 280 277 277 279 282 283 283 283 283
297 297 294 291 291 292 291 292 292 291 293 292 290 288 289 288 288 289 287 285 285 284 284 284 283 283 282 281 281 282 281 281 280 281 283 281 280 278 276 280 281 282 282
296 296 292 292 292 289 289 290 290 291 292 291 291 289 290 290 284 283 283 284 283 284 283 283 282 282 281 281 282 281 281 280 280 280 280 280 279 279 278 276 278 280 281
296 292 292 291 289 286 287 288 289 290 290 290 290 289 290 286 285 283 284 284 283 283 283 283 282 281 281 281 281 281 281 280 280 280 280 279 278 278 277 276 276 276 278
292 295 291 290 287 285 286 287 288 288 288 289 289 288 289 287 286 284 285 283 282 282 282 282 281 281 281 281 281 280 280 280 279 279 279 280 280 280 279 278 276 275 278
292 290 291 289 287 286 286 287 287 288 287 288 288 288 288 287 286 285 285 284 284 284 283 282 281 280 281 280 280 280 279 279 279 278 278 279 279 280 280 278 277 275 275
292 290 290 288 287 285 285 286 287 288 287 288 288 287 287 285 286 284 284 284 284 283 281 282 281 280 280 280 279 279 278 278 279 278 278 278 278 279 279 279 278 276 272
290 290 289 288 287 286 286 286 286 287 287 287 287 287 286 286 286 283 283 283 283 282 281 281 281 280 280 279 279 278 278 278 278 278 278 278 278 278 278 278 277 277 273
292 291 291 290 289 287 286 287 286 285 285 285 286 286 286 285 285 283 283 283 282 281 281 281 280 280 279 279 278 277 277 277 276 277 277 276 276 275 274 275 275 274 274
293 292 291 291 290 289 287 287 287 286 287 286 286 286 285 284 284 283 283 283 282 281 281 281 280 280 279 278 278 276 277 276 275 275 275 274 275 273 273 273 272 272 272
293 293 291 292 292 292 289 287 286 287 287 285 285 284 284 283 284 283 282 282 282 280 280 280 279 279 278 277 277 276 276 275 275 275 274 273 273 271 271 271 270 271 272
289 290 290 290 291 292 292 290 289 287 285 284 284 284 284 283 284 284 282 281 281 280 279 279 279 278 277 277 276 276 275 274 274 274 273 273 272 272 271 271 271 271 269
288 288 289 289 290 290 292 292 292 287 285 284 284 284 285 284 284 283 281 281 280 280 279 278 278 277 277 276 275 275 274 273 272 272 272 272 273 275 274 271 270 269 268
285 287 287 288 288 289 289 289 290 290 284 285 285 285 284 283 283 283 281 280 279 279 278 277 277 276 276 281 280 276 273 273 272 271 271 272 273 275 277 277 277 272 267
285 286 287 288 288 289 288 288 287 287 288 285 287 284 281 281 281 280 279 279 278 278 277 277 276 275 276 281 282 279 274 273 272 272 272 272 273 273 273 277 278 278 279
286 288 287 286 287 288 288 287 286 285 284 285 285 281 281 282 280 279 278 278 278 277 277 277 276 276 275 282 283 280 274 273 273 273 273 273 273 273 273 273 272 273 274
286 285 285 287 287 286 287 285 284 284 282 281 281 280 279 280 278 278 277 278 277 277 277 277 275 275 275 282 283 280 273 273 273 273 273 273 273 275 277 273 270 272 274
282 282 283 284 285 285 286 285 284 284 282 279 279 277 276 276 277 278 277 277 278 276 276 275 275 275 274 282 283 279 274 272 272 273 273 275 274 276 277 274 268 267 272
280 280 280 280 282 283 284 283 284 283 282 277 274 272 273 273 274 276 276 275 275 275 274 273 273 273 274 279 283 282 274 272 272 271 272 273 277 277 278 278 273 273 273
277 278 278 278 279 279 280 280 281 284 282 276 273 272 270 272 272 272 270 273 274 273 272 271 270 271 273 278 283 283 278 277 271 271 272 273 277 277 277 277 276 276 274
276 276 275 273 275 275 276 275 276 279 283 283 279 275 274 272 274 273 272 272 272 271 270 270 270 269 271 275 282 283 280 278 272 272 274 276 277 277 275 273 272 271 264
273 274 272 271 271 272 273 273 275 277 276 278 280 276 273 272 272 272 271 272 270 271 270 269 270 269 269 271 277 279 280 277 274 275 275 274 272 271 270 268 268 267 266
272 271 270 269 268 269 270 270 271 272 271 274 277 276 273 272 271 272 271 272 273 273 271 271 271 269 268 270 275 277 277 275 274 267 266 264 265 265 265 264 264 264 265
270 268 267 266 266 266 266 267 268 268 268 269 272 275 273 272 271 271 270 276 276 276 278 277 274 272 275 276 277 279 280 277 275 265 263 263 263 263 263 262 262 263 263

GFSMW_sfc_thetae_012.txt.gz
Theta_e
300 301 297 295 294 292 293 294 293 295 296 295 292 291 292 291 290 291 290 290 289 288 287 286 285 284 284 283 282 282 282 282 282 281 282 282 284 283 283 284 283 284 285
298 298 295 293 292 293 293 293 293 293 295 295 295 292 294 290 292 290 288 289 288 287 287 286 285 284 283 282 282 283 281 281 281 280 280 279 280 283 284 284 283 282 283
296 297 294 292 292 291 290 292 293 293 294 294 292 285 285 284 284 285 286 286 287 287 287 285 285 284 283 283 282 282 282 281 280 280 281 278 278 279 281 282 282 281 282
293 293 293 291 292 293 291 291 292 291 293 293 291 290 290 289 290 291 290 288 287 286 285 285 285 284 283 282 282 282 281 281 280 281 282 280 280 277 277 279 280 281 281
291 292 293 292 291 291 289 289 290 290 292 292 291 291 291 292 287 286 287 286 285 285 285 285 284 283 283 282 282 281 281 281 280 280 280 279 279 279 277 276 278 279 280
293 293 292 290 290 287 286 287 288 289 290 291 291 291 291 285 286 284 286 285 284 284 283 284 283 283 282 281 282 281 281 280 280 280 280 279 278 278 277 276 276 276 278
291 290 292 291 290 286 285 286 286 287 287 289 290 290 290 286 287 285 286 284 284 284 283 283 282 282 282 282 281 281 280 280 280 280 279 280 279 280 279 277 276 276 278
290 290 291 289 288 286 285 285 286 286 286 287 287 287 288 287 287 286 286 285 285 285 284 283 282 282 281 281 281 281 280 280 280 279 279 279 280 280 280 278 277 275 276
291 290 291 289 287 286 285 285 285 286 285 286 286 285 286 286 286 283 284 285 285 285 282 283 282 281 281 281 281 281 280 280 279 279 279 279 279 279 279 279 278 277 273
297 294 291 290 288 287 285 285 285 286 285 285 286 287 287 286 285 284 284 284 284 283 282 282 282 281 281 281 280 280 279 279 278 279 278 278 278 278 279 279 278 277 274
293 290 290 291 290 288 286 285 284 284 284 284 285 285 284 284 284 284 284 284 283 283 281 282 282 281 280 280 280 280 279 279 278 278 278 277 278 277 277 277 276 275 275
288 289 289 289 289 290 291 290 287 285 285 285 284 284 284 283 283 283 284 283 282 282 282 282 281 281 281 280 280 279 279 278 277 277 277 276 277 275 275 274 274 273 274
286 287 288 288 288 288 289 289 290 288 288 286 284 284 283 283 283 284 284 283 283 282 282 282 281 281 280 280 280 279 278 278 277 277 276 275 275 273 273 272 272 272 273
284 286 286 287 288 288 288 288 288 288 287 285 283 283 283 284 285 285 283 282 283 282 281 281 281 280 280 279 279 279 277 277 276 276 276 275 274 274 272 272 271 271 270
283 285 287 287 286 286 287 288 288 287 286 285 286 285 284 283 284 284 283 282 282 282 281 280 280 280 279 279 278 278 277 276 275 275 275 274 275 277 275 272 271 270 268
283 286 287 284 284 285 286 285 286 286 286 285 285 286 284 283 282 283 283 280 281 281 280 280 280 278 279 283 283 280 277 276 275 273 273 273 275 277 279 278 276 273 267
282 285 284 283 283 285 286 284 285 285 284 284 284 284 284 283 282 280 281 280 280 280 280 280 279 279 279 284 285 284 278 277 275 274 273 273 274 274 276 279 278 277 278
282 284 282 282 283 283 283 284 284 283 284 283 283 283 282 281 281 279 279 279 279 279 279 279 279 279 279 284 286 284 278 277 275 274 274 273 273 274 274 275 276 276 276
283 282 281 280 280 280 281 281 279 281 282 283 282 282 281 280 279 279 279 279 279 279 280 280 279 279 279 283 286 284 276 276 275 274 274 274 273 276 278 273 272 273 274
279 279 278 279 279 279 280 277 277 278 278 280 281 280 279 277 277 278 277 279 279 279 279 279 279 279 278 282 286 284 275 274 273 274 274 276 275 278 279 272 271 269 272
277 277 276 276 277 278 277 275 276 275 276 276 277 281 280 277 276 276 273 274 276 277 276 275 277 277 277 278 285 285 276 275 273 273 273 274 278 279 280 278 272 271 274
275 276 275 275 276 275 275 274 273 274 274 274 276 276 277 278 277 274 273 271 274 274 272 270 271 273 274 278 285 285 278 278 274 273 273 274 279 279 280 279 278 278 273
276 275 272 273 274 273 272 270 271 271 271 271 271 272 274 277 275 275 274 273 273 272 271 271 270 271 272 275 282 285 281 279 275 274 275 277 279 279 280 281 280 274 267
273 273 271 271 270 271 271 269 270 269 268 267 267 269 270 272 277 274 275 273 273 272 272 271 271 270 270 273 277 281 282 279 275 276 275 276 278 279 273 275 275 269 267
272 271 270 269 269 269 268 267 267 266 265 265 265 266 267 269 274 275 274 274 275 275 273 273 272 271 270 272 277 281 279 277 273 274 274 274 271 270 268 267 267 267 266
270 269 268 267 267 266 265 265 264 264 262 262 263 264 266 267 270 273 273 277 278 278 279 279 276 274 276 277 279 282 283 279 278 272 271 269 268 267 266 265 264 265 265

GFSMW_sfc_thetae_015.txt.gz
Theta_e
300 300 299 299 298 297 296 297 296 299 302 303 301 298 298 299 297 299 298 296 296 295 294 293 291 290 290 289 289 289 289 288 288 288 288 289 289 289 290 290 290 289 289
298 298 297 297 296 297 296 296 296 296 299 301 301 301 301 299 298 297 296 296 295 294 293 292 291 289 289 288 288 289 287 287 287 289 288 286 288 289 289 289 288 287 288
295 296 296 295 296 296 295 294 295 295 297 299 299 290 292 290 292 292 292 293 294 293 293 292 291 289 289 288 288 289 289 287 286 286 290 284 287 286 287 287 288 287 287
294 294 293 295 293 295 295 294 294 294 296 297 296 295 295 293 293 295 294 293 292 292 292 291 290 289 289 288 288 288 288 288 286 286 286 286 287 286 283 285 286 287 286
293 293 294 294 293 291 291 292 292 293 295 295 295 295 295 295 293 295 293 291 291 291 290 290 289 289 288 288 288 287 287 288 287 287 285 285 285 284 285 284 284 285 286
293 296 294 293 291 290 289 290 290 290 292 293 294 294 294 292 291 291 291 290 289 288 288 289 288 288 288 287 287 287 287 287 287 287 286 286 285 284 284 283 283 284 284
292 293 293 291 291 289 288 288 289 289 290 291 291 292 293 291 291 290 291 289 287 287 287 287 287 287 287 287 287 286 286 286 286 286 286 286 285 285 284 283 282 282 282
292 291 290 290 290 289 288 288 287 288 288 289 289 290 290 290 290 290 291 289 289 289 288 287 288 287 286 285 286 286 286 286 286 285 285 285 284 285 285 284 283 280 280
289 289 290 290 290 290 289 287 287 287 288 288 288 288 288 288 288 287 288 289 289 289 288 287 286 285 285 285 285 284 284 284 285 285 284 284 284 285 284 284 285 285 280
287 288 289 289 289 290 291 290 289 288 287 287 287 288 288 288 287 286 286 287 287 287 286 285 285 285 285 285 284 284 284 284 284 284 283 283 283 283 283 284 283 282 283
286 287 288 289 289 289 289 289 289 289 289 289 288 286 287 287 286 285 286 286 286 285 285 285 285 284 284 284 283 284 283 283 283 282 282 282 282 282 282 282 282 281 280
285 286 288 288 287 288 288 288 288 288 288 288 288 287 286 285 285 285 285 285 285 284 284 284 284 284 283 283 283 283 282 282 281 281 281 280 280 281 281 281 280 280 279
284 285 287 287 286 286 287 287 287 288 287 287 287 287 287 286 285 285 285 284 285 284 284 283 283 283 283 282 283 283 282 282 282 281 280 280 280 279 279 279 278 278 277
283 284 287 286 285 285 286 286 286 287 287 286 286 286 286 286 286 286 285 284 284 284 284 283 283 283 282 282 282 282 281 281 281 281 281 280 279 279 278 278 278 277 276
282 283 286 285 283 283 284 285 285 285 286 285 285 285 285 285 285 285 285 285 283 284 284 283 283 283 282 281 281 281 282 281 280 280 280 280 280 281 280 278 277 276 275
280 282 285 283 281 282 282 282 283 283 283 283 284 284 284 284 283 284 284 284 283 283 283 282 282 282 281 285 286 283 281 281 279 278 278 279 279 281 282 281 280 277 273
280 281 282 281 280 280 281 280 281 281 280 281 283 283 283 282 281 282 282 282 282 283 282 282 282 281 282 286 287 286 281 280 280 279 278 277 277 279 279 282 281 280 279
279 281 281 280 280 280 280 279 280 278 278 279 279 280 279 278 280 280 281 281 281 281 281 281 282 281 282 285 287 286 282 280 280 279 278 277 277 278 278 279 278 278 278
280 281 280 279 279 279 279 278 277 276 277 277 277 277 276 276 279 279 279 280 280 280 281 281 281 281 282 285 286 286 283 280 279 278 278 278 276 279 281 278 277 276 276
280 280 278 278 278 278 278 277 275 274 275 275 275 275 275 276 275 276 278 279 279 279 280 280 281 281 281 284 285 286 284 279 278 278 277 278 277 280 281 277 276 275 276
279 278 276 276 276 276 275 274 274 273 274 274 273 272 273 273 273 274 277 277 278 278 278 278 279 279 280 280 284 286 284 279 278 276 275 276 280 280 282 280 276 276 276
277 277 276 276 276 276 274 273 272 273 272 271 270 270 269 270 271 271 273 276 276 275 277 277 277 277 278 279 282 285 287 282 278 276 276 276 280 281 282 280 277 278 276
276 276 274 273 274 274 272 270 272 271 270 268 267 267 267 267 268 269 270 272 275 274 275 275 274 275 275 277 281 283 285 284 278 277 278 278 281 281 282 282 278 277 273
274 273 271 271 271 272 272 271 270 269 266 264 265 265 265 265 266 268 269 271 274 274 274 275 274 275 274 274 276 279 281 284 280 278 277 278 280 280 280 280 279 274 272
272 271 270 269 269 270 269 268 268 266 264 263 264 263 264 263 264 266 268 270 273 276 274 275 275 274 273 274 276 277 279 280 279 276 275 275 277 276 276 275 271 270 269
269 267 267 266 265 265 265 265 264 263 262 261 261 261 262 262 263 264 265 271 274 277 280 280 279 276 278 279 279 280 281 283 279 274 273 274 275 272 273 270 269 269 268